Atlanta, NE

4:26 AM CST on February 09, 2016 (GMT -0600)
Brewster

Weather History for KHDE - April, 2013

Change the Weather History Date:

Tuesday, April 16, 2013

  Actual Average Record
Temperature  
Mean Temperature 40 °F -  
Max Temperature 45 °F 66 °F 91 °F (1964)
Min Temperature 34 °F 38 °F 20 °F (1951)
Degree Days  
Heating Degree Days 26    
Moisture  
Dew Point 28 °F    
Average Humidity 61    
Maximum Humidity 81    
Minimum Humidity 47    
Precipitation  
Precipitation 0.00 in - - ()
Sea Level Pressure  
Sea Level Pressure 30.10 in    
Wind  
Wind Speed 14 mph (ENE)    
Max Wind Speed 23 mph    
Max Gust Speed 29 mph    
Visibility 10 miles    
Events      
Averages and records for this station are not official NWS values.
T = Trace of Precipitation, MM = Missing Value Source: NWS Daily Summary

Daily Weather History Graph

Daily Weather History Graph

Search for Another Location

Airport or City:

Trip Planner

Search our weather history database for the weather conditions in past years. The results will help you decide how hot, cold, wet, or windy it might be!

Date:

Astronomy

Apr. 16, 2013 Rise Set
Actual Time 6:57 AM CDT 8:17 PM CDT
Civil Twilight 6:28 AM CDT 8:46 PM CDT
Nautical Twilight 5:54 AM CDT 9:20 PM CDT
Astronomical Twilight 5:18 AM CDT 9:56 PM CDT
Moon 11:16 AM CDT (4/16) 1:16 AM CDT (4/16)
Length of Visible Light 14h 17m
Length of Day
13h 20m
Waxing Crescent, 33% of the Moon is Illuminated
Apr 16
Waxing Crescent
Apr 18
First Quarter
Apr 25
Full
May 2
Last Quarter
May 9
New

Hourly Weather History & Observations

Time (CDT) Temp. Windchill Dew Point Humidity Pressure Visibility Wind Dir Wind Speed Gust Speed Precip Events Conditions
12:15 AM 40.3 °F 33.0 °F 27.1 °F 59% 30.05 in 10.0 mi NE 12.7 mph - N/A   Overcast
12:35 AM 39.7 °F 31.9 °F 27.3 °F 61% 30.04 in 10.0 mi NE 13.8 mph - N/A   Overcast
12:55 AM 39.4 °F 30.4 °F 27.0 °F 61% 30.05 in 10.0 mi NE 17.3 mph - N/A   Overcast
1:15 AM 39.0 °F 30.3 °F 27.1 °F 62% 30.04 in 10.0 mi NNE 16.1 mph - N/A   Overcast
1:35 AM 38.7 °F 29.5 °F 27.1 °F 63% 30.05 in 10.0 mi NNE 17.3 mph 24.2 mph N/A   Overcast
1:55 AM 38.3 °F 29.0 °F 26.8 °F 63% 30.07 in 10.0 mi NNE 17.3 mph - N/A   Overcast
2:15 AM 37.8 °F 28.6 °F 27.1 °F 66% 30.08 in 10.0 mi NNE 16.1 mph - N/A   Overcast
2:35 AM 37.4 °F 28.9 °F 26.6 °F 65% 30.08 in 10.0 mi NNE 13.8 mph - N/A   Overcast
2:55 AM 37.4 °F 28.9 °F 26.6 °F 65% 30.09 in 10.0 mi NNE 13.8 mph 19.6 mph N/A   Overcast
3:15 AM 37.4 °F 29.8 °F 26.6 °F 65% 30.09 in 10.0 mi NNE 11.5 mph - N/A   Overcast
3:35 AM 36.9 °F 27.5 °F 26.4 °F 66% 30.09 in 10.0 mi NNE 16.1 mph - N/A   Overcast
3:55 AM 36.0 °F 26.3 °F 27.3 °F 71% 30.10 in 10.0 mi North 16.1 mph - N/A   Overcast
4:15 AM 35.6 °F 26.2 °F 27.9 °F 73% 30.10 in 10.0 mi NNE 15.0 mph - N/A   Overcast
4:35 AM 35.1 °F 25.9 °F 28.2 °F 76% 30.09 in 10.0 mi NNE 13.8 mph - N/A   Overcast
4:55 AM 34.9 °F 26.2 °F 28.4 °F 77% 30.11 in 10.0 mi NNE 12.7 mph - N/A   Overcast
5:15 AM 34.7 °F 26.9 °F 28.9 °F 79% 30.11 in 10.0 mi NNE 10.4 mph - N/A   Overcast
5:35 AM 34.7 °F 26.9 °F 28.9 °F 79% 30.11 in 10.0 mi NNE 10.4 mph - N/A   Overcast
5:55 AM 34.7 °F 27.5 °F 29.1 °F 80% 30.11 in 10.0 mi NNE 9.2 mph - N/A   Overcast
6:15 AM 34.7 °F 27.5 °F 29.3 °F 81% 30.11 in 10.0 mi North 9.2 mph - N/A   Overcast
6:35 AM 34.7 °F 28.1 °F 29.3 °F 81% 30.12 in 10.0 mi North 8.1 mph - N/A   Overcast
7:15 AM 34.7 °F 28.8 °F 29.3 °F 81% 30.13 in 10.0 mi NNE 6.9 mph - N/A   Overcast
7:35 AM 34.9 °F 29.0 °F 29.3 °F 80% 30.14 in 10.0 mi NNE 6.9 mph - N/A   Overcast
7:55 AM 35.1 °F 29.3 °F 29.3 °F 80% 30.15 in 10.0 mi NE 6.9 mph - N/A   Overcast
8:15 AM 35.8 °F 29.4 °F 29.3 °F 77% 30.16 in 10.0 mi ENE 8.1 mph - N/A   Overcast
8:35 AM 36.1 °F 27.7 °F 28.4 °F 73% 30.16 in 10.0 mi ENE 12.7 mph - N/A   Overcast
8:55 AM 36.5 °F 29.2 °F 28.2 °F 72% 30.17 in 10.0 mi East 10.4 mph - N/A   Overcast
9:15 AM 36.7 °F 28.0 °F 27.7 °F 70% 30.17 in 10.0 mi ENE 13.8 mph - N/A   Overcast
9:35 AM 37.6 °F 28.8 °F 28.4 °F 69% 30.17 in 10.0 mi East 15.0 mph - N/A   Overcast
9:55 AM 38.3 °F 29.0 °F 28.0 °F 67% 30.16 in 10.0 mi ENE 17.3 mph - N/A   Mostly Cloudy
10:15 AM 39.0 °F 29.9 °F 28.6 °F 66% 30.17 in 10.0 mi East 17.3 mph 20.7 mph N/A   Scattered Clouds
10:35 AM 40.3 °F 31.9 °F 28.4 °F 63% 30.17 in 10.0 mi ENE 16.1 mph 23.0 mph N/A   Scattered Clouds
10:55 AM 40.3 °F 31.9 °F 27.1 °F 59% 30.17 in 10.0 mi ENE 16.1 mph 19.6 mph N/A   Mostly Cloudy
11:15 AM 41.5 °F 33.5 °F 26.8 °F 56% 30.16 in 10.0 mi ENE 16.1 mph 21.9 mph N/A   Overcast
11:35 AM 41.9 °F 35.0 °F 26.6 °F 55% 30.16 in 10.0 mi ENE 12.7 mph 23.0 mph N/A   Overcast
11:55 AM 41.5 °F 32.9 °F 26.1 °F 54% 30.17 in 10.0 mi ENE 18.4 mph 23.0 mph N/A   Overcast
12:15 PM 43.5 °F 36.4 °F 26.8 °F 52% 30.16 in 10.0 mi ENE 15.0 mph 23.0 mph N/A   Overcast
12:35 PM 43.5 °F 36.4 °F 26.4 °F 51% 30.16 in 10.0 mi East 15.0 mph 23.0 mph N/A   Overcast
12:55 PM 43.2 °F 35.0 °F 26.4 °F 52% 30.15 in 10.0 mi East 18.4 mph 23.0 mph N/A   Overcast
1:15 PM 43.7 °F 36.6 °F 25.7 °F 49% 30.15 in 10.0 mi ENE 15.0 mph 21.9 mph N/A   Overcast
1:35 PM 44.8 °F 38.0 °F 26.1 °F 48% 30.14 in 10.0 mi East 15.0 mph 23.0 mph N/A   Overcast
1:55 PM 44.1 °F 37.1 °F 25.2 °F 47% 30.13 in 10.0 mi East 15.0 mph 23.0 mph N/A   Overcast
2:15 PM 45.5 °F 38.1 °F 26.1 °F 47% 30.12 in 10.0 mi East 18.4 mph 24.2 mph N/A   Overcast
2:35 PM 45.3 °F 37.6 °F 26.1 °F 47% 30.11 in 10.0 mi East 19.6 mph - N/A   Overcast
2:55 PM 44.4 °F 36.6 °F 25.9 °F 48% 30.10 in 10.0 mi ENE 18.4 mph 24.2 mph N/A   Overcast
3:15 PM 44.8 °F 37.1 °F 25.9 °F 48% 30.09 in 10.0 mi East 18.4 mph 24.2 mph N/A   Overcast
3:35 PM 45.5 °F 38.6 °F 26.6 °F 48% 30.08 in 10.0 mi East 16.1 mph 28.8 mph N/A   Overcast
3:55 PM 44.6 °F 36.9 °F 26.2 °F 49% 30.09 in 10.0 mi East 18.4 mph 24.2 mph N/A   Overcast
4:15 PM 44.6 °F 35.9 °F 26.6 °F 49% 30.08 in 10.0 mi East 23.0 mph 26.5 mph N/A   Overcast
4:35 PM 45.0 °F 37.1 °F 27.0 °F 49% 30.07 in 10.0 mi East 19.6 mph 25.3 mph N/A   Overcast
4:55 PM 44.6 °F 36.4 °F 26.4 °F 49% 30.06 in 10.0 mi East 20.7 mph 24.2 mph N/A   Overcast
5:15 PM 44.2 °F 37.0 °F 25.9 °F 49% 30.06 in 10.0 mi East 16.1 mph 23.0 mph N/A   Overcast
5:35 PM 43.9 °F 35.9 °F 26.6 °F 51% 30.05 in 10.0 mi East 18.4 mph 26.5 mph N/A   Overcast
5:55 PM 43.9 °F 36.5 °F 27.0 °F 51% 30.06 in 10.0 mi East 16.1 mph 25.3 mph N/A   Overcast
6:15 PM 44.1 °F 35.9 °F 26.8 °F 51% 30.06 in 10.0 mi East 19.6 mph 24.2 mph N/A   Overcast
6:35 PM 43.9 °F 35.7 °F 27.1 °F 52% 30.05 in 10.0 mi ENE 19.6 mph 23.0 mph N/A   Overcast
6:55 PM 44.2 °F 36.2 °F 27.9 °F 53% 30.04 in 10.0 mi East 19.6 mph 25.3 mph N/A   Overcast
7:15 PM 44.1 °F 36.2 °F 27.3 °F 52% 30.04 in 10.0 mi ENE 18.4 mph 27.6 mph N/A   Overcast
7:35 PM 43.9 °F 35.9 °F 27.5 °F 53% 30.04 in 10.0 mi ENE 18.4 mph 24.2 mph N/A   Overcast
7:55 PM 43.7 °F 35.2 °F 27.9 °F 54% 30.04 in 10.0 mi ENE 20.7 mph - N/A   Overcast
8:15 PM 43.2 °F 35.6 °F 28.4 °F 56% 30.04 in 10.0 mi ENE 16.1 mph 23.0 mph N/A   Overcast
8:35 PM 43.0 °F 35.4 °F 28.4 °F 56% 30.05 in 10.0 mi ENE 16.1 mph - N/A   Overcast
8:55 PM 43.0 °F 35.4 °F 28.6 °F 57% 30.06 in 10.0 mi ENE 16.1 mph - N/A   Overcast
9:15 PM 42.8 °F 36.2 °F 29.5 °F 59% 30.07 in 10.0 mi ENE 12.7 mph - N/A   Overcast
9:35 PM 42.8 °F 35.8 °F 29.7 °F 60% 30.08 in 10.0 mi East 13.8 mph - N/A   Overcast
9:55 PM 42.4 °F 35.7 °F 29.8 °F 61% 30.09 in 10.0 mi ENE 12.7 mph - N/A   Overcast
10:15 PM 42.3 °F 35.9 °F 30.2 °F 62% 30.09 in 10.0 mi ENE 11.5 mph - N/A   Overcast
10:35 PM 42.3 °F 36.8 °F 30.7 °F 64% 30.09 in 10.0 mi ENE 9.2 mph - N/A   Overcast
10:55 PM 42.3 °F 35.5 °F 30.2 °F 62% 30.09 in 10.0 mi ENE 12.7 mph - N/A   Overcast
11:15 PM 42.3 °F 36.3 °F 30.2 °F 62% 30.09 in 10.0 mi ENE 10.4 mph - N/A   Overcast
11:35 PM 42.1 °F 36.1 °F 30.2 °F 63% 30.09 in 10.0 mi ENE 10.4 mph - N/A   Overcast
11:55 PM 42.1 °F 35.2 °F 30.0 °F 62% 30.09 in 10.0 mi ENE 12.7 mph - N/A   Overcast